www.pogodaiklimat.ru

Погода и климат >> Архив погоды >> Россия >> Приморский край >> Сосуново


ПОГОДА в Сосуново

  • Прогноз погоды в Сосуново
  • Монитор погоды в Сосуново
  • Климат города

АРХИВ ПОГОДЫ в Сосуново

Время (UTC), дата Ветер
(напр.,м/с)
 
Видим.   Явления Облачность Т
(С)
Тd
(С)
f
(%)
Тe
(С)
Тes
(С)
Комфортность P
(гПа)
Po
(гПа)
Тmin
(С)
Tmax
(С)
R
(мм)
R24
(мм)
S
(см)
03 10.12 ЮЗ 3 50 км 4/0
[Cs]
-8.0 -21.5 33 -13 -11 1014.8 1014.3
06 10.12 Ю 2 50 км 10/0
[As op]
-6.2 -16.0 46 -10 -10 1014.9 1014.5
09 10.12 ЮЗ 3 50 км 10/0
[As op]
-10.2 -15.1 67 -16 -16 1015.2 1014.7 -6.0
12 10.12 ЮЗ 4 50 км 10/0
[As op]
-10.2 -15.1 67 -17 -17 1015.2 1014.8
15 10.12 С 2 50 км 10/0
[As op]
-6.3 -13.5 57 -10 -10 1013.4 1013.0
18 10.12 С 6-11
{12}
4000 м слабый снег 10/3 200 м
[Frnb As op]
-6.7 -8.5 87 -15 -15 1010.2 1009.8
21 10.12 СВ 13-18
{19}
1000 м снег 10/0
[As op]
-6.2 -7.4 91 -17 -17 1005.8 1005.4 -10.4 3 14
00 11.12 СВ 20-26
{26}
500 м сильная метель {ливн. осадки, снег} ?/? -4.0 -5.2 91 -16 -16 1002.8 1002.4
03 11.12 СВ 20-28
{29}
500 м сильная метель ?/? -3.3 -4.2 93 -15 -15 997.9 997.5
06 11.12 СВ 21-28
{30}
500 м сильная метель ?/? -3.7 -4.7 93 -16 -16 995.7 995.3
09 11.12 СВ 18-26
{29}
500 м сильная метель ?/? -2.9 -3.8 93 -14 -14 994.9 994.5 -2.9 9
12 11.12 ЮВ 3
{28}
20 км {метель} ясно -3.1 -6.2 79 -8 -8 995.9 995.5
15 11.12 ЮЗ 3 4000 м ливневой снег 10/10 600 м
[Cb cap]
-4.6 -5.7 92 -10 -10 995.2 994.8
18 11.12 ЮЗ 3 20 км {ливн. осадки} 5/5 600 м
[Cb cap]
-8.5 -9.9 90 -14 -14 995.3 994.9
21 11.12 ЮЗ 5 20 км 6/6 600 м
[Cb cap]
-8.3 -9.7 90 -16 -16 995.8 995.3 -9.1 6 20
00 12.12 С 5-11
{11}
1000 м ливневой снег 10/3 200 м
[Frnb As op]
-4.6 -5.6 93 -12 -12 996.1 995.7 -9.2
03 12.12 З 7-11
{12}
1000 м ливневой снег 10/3 600 м
[Cb cap As op]
-7.8 -9.5 88 -17 -17 996.2 995.8
06 12.12 З 10-13
{14}
20 км в посл. час ливневой снег 10/10 600 м
[Cb cap]
-8.1 -11.6 76 -18 -18 997.2 996.8
09 12.12 З 10-15
{15}
20 км 10/0
[As op]
-8.7 -14.6 62 -19 -19 998.8 998.4 -4.3 5
12 12.12 З 10-17
{18}
4000 м слабый снег 10/0
[As op]
-8.9 -14.2 65 -19 -19 999.7 999.3
15 12.12 З 11-18
{19}
4000 м позёмок {метель} 10/0
[As op]
-8.8 -15.8 57 -19 -19 1001.1 1000.8
18 12.12 З 11-20
{21}
4000 м позёмок {метель} 10/0
[As op]
-8.8 -14.9 61 -19 -19 1003.2 1002.8
21 12.12 З 11-18
{21}
20 км позёмок {метель} 10/0
[As op]
-8.9 -15.0 61 -8.9 0.7
00 13.12 СЗ 10-15
{18}
4000 м слабый снег {метель} 10/0
[As op]
-8.8 -14.8 62
03 13.12 З 9 20 км позёмок {снег, метель} 10/0
[As trans]
-7.1 -12.5 65 -17 -16 1008.8 1008.4
06 13.12 З 7-13
{16}
10 км слабый снег {метель} 10/0
[As op]
-6.0 -11.2 67 -14 -14 1012.0 1011.6
09 13.12 З 6-11
{14}
20 км {снег, метель} 10/0
[As op]
-6.0 -14.4 51 -13 -13 1015.3 1014.9 -5.7 0.3
12 13.12 З 7-13
{14}
20 км {снег, метель} 10/0
[As op]
-7.0 -15.1 52 -15 -15 1018.1 1017.7
15 13.12 СЗ 4
{13}
20 км 10/0
[As op]
-7.3 -15.5 52 -14 -14 1020.2 1019.7
18 13.12 З 7-15
{15}
20 км 6/0
[As trans]
-8.4 -16.4 52 -17 -17 1021.7 1021.3
21 13.12 З 8-13
{15}
20 км 10/0
[As trans]
-8.8 -16.8 52 -18 -18 1023.3 1022.8 -9.0 13
00 14.12 З 6-10
{13}
10 км слабый снег 10/0
[As op]
-9.8 -17.4 54 -18 -18 1024.7 1024.3 -10.0
03 14.12 З 6
{12}
20 км {снег} 5/0
[Ci fib]
-6.2 -15.8 47 -14 -13 1022.9 1022.5
06 14.12 З 5 20 км {снег} 8/0
[Ci fib]
-5.4 -15.6 44 -12 -12 1022.3 1021.9
09 14.12 З 6 20 км 10/0
[Ci fib]
-8.3 -17.2 49 -16 -16 1022.3 1021.9 -4.8
12 14.12 З 7-10
{12}
20 км 10/0
[As op]
-8.9 -17.3 51 -18 -18 1021.1 1020.7
15 14.12 З 7-10
{11}
20 км 5/0
[Cs]
-9.3 -18.3 48 -18 -18 1020.0 1019.5
18 14.12 З 9-12
{12}
20 км ясно -11.2 -19.3 51 -22 -22 1019.5 1019.1
21 14.12 ЮЗ 6
{14}
20 км ясно -11.2 -20.0 48 -20 -20 1019.2 1018.8 -11.6 13
00 15.12 З 8-13
{13}
50 км 10/0
[Ci fib]
-10.9 -20.2 46 -21 -21 1019.1 1018.7 -13.1
03 15.12 З 7
{13}
50 км 10/0
[Ci fib]
-7.5 -19.4 38 -16 -15 1018.2 1017.8
06 15.12 З 6
{11}
50 км 10/0
[As trans Cs]
-8.1 -19.0 41 -16 -16 1016.6 1016.2
09 15.12 З 5 50 км 10/0
[Cs]
-9.0 -18.2 47 -16 -16 1016.5 1016.0 -7.2
12 15.12 З 6
{10}
50 км 10/0
[As op]
-10.2 -15.1 67 -19 -19 1015.7 1015.2
15 15.12 З 6
{10}
50 км ясно -11.8 -19.8 51 -21 -21 1014.7 1014.3
18 15.12 З 6
{12}
50 км ясно -12.8 -21.9 46 -22 -22 1013.6 1013.2
21 15.12 З 6
{10}
50 км ясно -13.3 -22.7 45 -22 -22 1012.5 1012.0 -13.3 13
00 16.12 З 6
{11}
50 км ясно -12.9 -23.0 42 -22 -22 1012.6 1012.2 -13.8
03 16.12 З 5
{10}
50 км 5/0
[Ci fib]
-9.4 -22.6 33 -17 -16 1011.4 1011.0
06 16.12 З 5 50 км 8/0
[Ci fib]
-9.4 -21.8 36 -17 -17 1010.7 1010.2
09 16.12 З 6
{12}
50 км 5/0
[Ci fib]
-12.2 -21.7 45 -21 -21 1011.7 1011.3 -8.6
12 16.12 З 7
{10}
50 км ясно -13.9 -22.9 46 -24 -24 1012.5 1012.1
15 16.12 З 7-10
{11}
н/о н/о -15.1 -24.4 45 -25 -25 1012.8 1012.4
18 16.12 З 7-10
{11}
50 км ясно -15.7 -25.3 43 -26 -26 1012.8 1012.4
21 16.12 З 7-10
{12}
50 км ясно -16.1 -25.4 45 -27 -27 1013.2 1012.8 -16.1 13

 

Местоположение метеостанции Сосуново (Приморский край, Россия): широта 46.55 долгота 138.30 высота над уровнем моря 4 м.

В архиве по умолчанию представлена погода в Сосуново за последнюю неделю. Архивные данные за месяц целиком и за предыдущие месяцы, начиная с января 2011 года, Вы можете получить, выбрав интересующий диапазон дат из раскрывающегося списка и нажав кнопку "Ввод!".

Внимание! Время в таблицах - всемирное. Для получения местного времени необходимо прибавить поправку, которая в Сосуново равна 10 ч.

Смотрите также архив погоды в соседних городах и на ближайших метеорологических станциях:

Погода в Агзу (Приморский край, Россия) (117 км)
Погода в Сукпае (Хабаровский край, Россия) (142 км)
Погода в Малой Кеме (Приморский край, Россия) (158 км)
Погода в Гвасюгах (Хабаровский край, Россия) (208 км)
Погода в Тернее (Приморский край, Россия) (217 км)
Погода на Остров Монерон (Сахалинская область, Россия) (225 км)
Погода в Красном Яре (Приморский край, Россия) (230 км)
Погода в Глубинном (Приморский край, Россия) (237 км)
Погода в Бичевой (Хабаровский край, Россия) (245 км)
Погода в Тивяку (Хабаровский край, Россия) (248 км)

Пояснения к столбцам:

Ветер - указаны скорость ветра в м/с - средняя за 10 мин, порывы в срок и между сроками (в фигурных скобках) и направление, откуда дует ветер: С - северный, СВ - северо-восточный, В - восточный, ЮВ - юго-восточный, Ю - южный, ЮЗ - юго-западный, З - западный, СЗ - северо-западный.
Видимость - горизонтальная дальность видимости в метрах или километрах. При видимости от 1 до 10 км при отсутствии осадков обычно наблюдается дымка, при ухудшении видимости до 1 км и менее - туман. В сухую погоду видимость может ухудшаться дымом, пылью или мглою.
Явления - указаны атмосферные явления, наблюдавшиеся в срок или в последний час перед сроком; фигурными скобками обозначены явления, наблюдавшиеся между сроками (за 1-3 часа до срока); квадратными скобками обозначены град или гололедные отложения с указанием их диаметра в мм.
Облачность - указаны через наклонную черту общая и нижняя облачность в баллах и высота нижней границы облаков в метрах; квадратными скобками обозначены формы облаков: Ci - перистые, Cs - перисто-слоистые, Cc - перисто-кучевые, Ac - высококучевые, As - высокослоистые, Sc - слоисто-кучевые, Ns - слоисто-дождевые, Cu - кучевые, Cb - кучево-дождевые. Подробнее классификацию облаков см. в Атласе облаков (PDF).
T - Температура воздуха - температура, измеренная на высоте 2 м над землей.
Td - Температура точки росы - температура, при понижении до которой содержащийся в воздухе водяной пар достигнет насыщения.
f - Относительная влажность воздуха - влажноcть воздуха, измеренная на высоте 2 м над землей.
Te - Эффективная температура - температура, которую ощущает одетый по сезону человек в тени. Характеристика душности погоды. При расчете учитывается влияние влажности воздуха и скорости ветра на теплоощущения человека.
Tes - Эффективная температура на солнце - температура, которую ощущает человек, с поправкой на солнечный нагрев. Характеристика знойности погоды. Зависит от высоты солнца над горизонтом, облачности и скорости ветра. Ночью, в пасмурную погоду, а также при ветре 12 м/с и более поправка равна нулю.
P - Атмосферное давление - приведенное к уровню моря атмосферное давление.
Po - Атмосферное давление - измеренное на уровне метеостанции атмосферное давление.
Tmin - Минимальная температура - минимум температуры воздуха на высоте 2 м над землей.
Tmax - Максимальная температура - максимум температуры воздуха на высоте 2 м над землей.
R - Количество осадков - Количество выпавших осадков за период времени, мм. При наведении курсора мыши на число - период времени, за который выпало указанное количество осадков.
R24 - Количество осадков - Количество выпавших осадков за 24 часа, мм.
S - Снежный покров - Высота снежного покрова, см. При наведении курсора мыши на число - состояние снежного покрова и степень покрытия местности в баллах.